Date_and_time,latitude,longitude,wind_speed,RelWindDirFrom,WindDirFrom,air_pressure,air_temperature,relative_humidity,Temp,platform_speed_wrt_ground,air_pressure_at_mean_sea_level,platform_orientation
2018-09-02 23:40,50.6304383333333,-96.9807666666667,7.8,11.0,239,986.87,20.6,28,19.45,0.0,1012.73,360.0
2018-09-02 23:50,50.63044,-96.9807666666667,8.6,12.7,249,986.85,20.6,29,19.43,0.0,1012.71,360.0
2018-09-03 00:00,50.6304633333333,-96.9807383333333,7.9,12.5,245,986.91,20.4,30,19.41,0.0,1012.77,360.0
2018-09-03 00:10,50.63045,-96.9807683333333,7.6,10.7,240,986.90,20.0,30,19.40,0.0,1012.77,360.0
2018-09-03 00:20,50.630445,-96.980765,6.8,9.4,235,986.94,19.7,32,19.39,0.0,1012.84,360.0
2018-09-03 00:30,50.6304533333333,-96.980785,5.8,9.5,233,986.98,19.5,33,19.37,0.0,1012.87,360.0
2018-09-03 00:40,50.63045,-96.9807733333333,5.0,7.1,223,987.05,19.3,35,19.36,0.0,1012.96,360.0
2018-09-03 00:50,50.6304466666667,-96.98077,5.8,8.6,224,987.10,19.0,36,19.35,0.0,1013.02,360.0
2018-09-03 01:00,50.630435,-96.9807333333333,5.3,7.7,221,987.10,18.6,37,19.35,0.0,1013.05,106.8
2018-09-03 01:10,50.63043,-96.9807683333333,5.4,6.7,212,987.13,18.2,38,19.35,0.0,1013.10,106.8
2018-09-03 01:20,50.6304383333333,-96.980765,5.1,6.2,209,987.18,17.9,40,19.34,0.0,1013.17,106.8
2018-09-03 01:30,50.630435,-96.9807583333333,5.7,7.2,203,987.23,17.8,41,19.33,0.0,1013.23,106.8
2018-09-03 01:40,50.630455,-96.98077,6.4,7.7,204,987.34,17.7,41,19.32,0.0,1013.34,106.8
2018-09-03 01:50,50.6304466666667,-96.9807583333333,6.8,9.1,206,987.45,17.6,40,19.31,0.0,1013.47,106.8
2018-09-03 02:00,50.63045,-96.9807566666667,6.3,8.1,206,987.48,17.6,40,19.30,0.0,1013.52,14.5
2018-09-03 02:10,50.6304266666667,-96.9807516666667,6.0,7.6,204,987.52,17.4,41,19.30,0.0,1013.58,14.5
2018-09-03 02:20,50.6304383333333,-96.9807516666667,6.0,7.5,203,987.54,17.2,41,19.28,0.0,1013.62,14.5
2018-09-03 02:30,50.6304416666667,-96.980755,6.2,8.0,201,987.61,17.0,43,19.27,0.0,1013.71,14.5
2018-09-03 02:40,50.63046,-96.9807583333333,6.5,8.1,199,987.72,16.9,43,19.26,0.0,1013.84,14.5
2018-09-03 02:50,50.63043,-96.9807483333333,6.1,8.0,200,987.79,16.7,45,19.25,0.0,1013.94,14.5
2018-09-03 03:00,50.6304366666667,-96.980755,6.6,8.5,204,987.87,16.5,45,19.25,0.0,1014.05,188.4
2018-09-03 03:10,50.6304383333333,-96.9807566666667,7.3,9.4,207,987.96,16.4,44,19.24,0.0,1014.16,188.4
2018-09-03 03:20,50.6304383333333,-96.9807583333333,6.9,9.4,208,988.04,16.2,45,19.23,0.0,1014.26,188.4
2018-09-03 03:30,50.63044,-96.98076,6.4,8.2,210,988.10,16.1,45,19.22,0.0,1014.33,188.4
2018-09-03 03:40,50.63044,-96.9807616666667,6.7,8.1,212,988.26,16.0,45,19.21,0.0,1014.50,188.4
2018-09-03 03:50,50.6304383333333,-96.9807633333333,5.9,7.7,207,988.34,15.8,47,19.19,0.0,1014.59,188.4
2018-09-03 04:00,50.6304383333333,-96.9807633333333,5.6,7.6,209,988.44,15.5,48,19.18,0.0,1014.71,287.7
2018-09-03 04:10,50.6304366666667,-96.980765,5.7,7.4,211,988.54,15.2,48,19.17,0.0,1014.84,287.7
2018-09-03 04:20,50.6304366666667,-96.980765,5.5,7.0,210,988.64,15.0,49,19.16,0.0,1014.97,287.7
2018-09-03 04:30,50.6304366666667,-96.980765,5.6,7.2,209,988.71,14.9,49,19.14,0.0,1015.05,287.7
2018-09-03 04:40,50.630435,-96.9807666666667,6.0,8.0,209,988.75,14.8,49,19.13,0.0,1015.10,287.7
2018-09-03 04:50,50.630435,-96.9807666666667,5.8,8.2,213,988.80,14.6,50,19.12,0.0,1015.17,287.7
2018-09-03 05:00,50.6304366666667,-96.9807666666667,5.3,7.1,219,988.89,14.5,51,19.10,0.0,1015.27,360.0
2018-09-03 05:10,50.6304433333333,-96.980785,5.6,7.5,223,988.98,14.3,50,19.09,0.0,1015.38,360.0
2018-09-03 05:20,50.6304366666667,-96.9807716666667,5.9,8.5,223,989.00,14.2,51,19.08,0.0,1015.41,360.0
2018-09-03 05:30,50.6304383333333,-96.9807766666667,6.4,9.1,224,989.01,14.2,51,19.06,0.0,1015.42,360.0
2018-09-03 05:40,50.6304383333333,-96.9807783333333,7.1,8.8,220,989.03,14.0,51,19.05,0.0,1015.47,360.0
2018-09-03 05:50,50.6304383333333,-96.9807766666667,6.2,8.0,219,989.06,13.9,53,19.05,0.0,1015.52,360.0
2018-09-03 06:00,50.63044,-96.980775,5.2,7.6,224,989.10,13.8,54,19.03,0.0,1015.58,305.3
2018-09-03 06:10,50.630405,-96.9807866666667,4.4,6.1,222,989.17,13.6,56,19.00,0.0,1015.66,305.3
2018-09-03 06:20,50.630435,-96.9807666666667,5.3,6.8,223,989.22,13.5,55,18.99,0.0,1015.72,305.3
2018-09-03 06:30,50.63041,-96.980765,5.1,6.9,229,989.27,13.3,56,18.97,0.0,1015.80,305.3
2018-09-03 06:40,50.6304366666667,-96.9807683333333,5.3,6.7,236,989.30,13.1,57,18.97,0.0,1015.84,305.3
2018-09-03 06:50,50.6304383333333,-96.9807766666667,5.2,6.6,238,989.35,13.0,58,18.94,0.0,1015.90,305.3
2018-09-03 07:00,50.6304333333333,-96.9807716666667,5.0,6.6,230,989.43,12.9,60,18.92,0.0,1016.00,194.5
2018-09-03 07:10,50.6304316666667,-96.9807666666667,5.8,8.1,229,989.51,12.8,61,18.88,0.0,1016.08,194.5
2018-09-03 07:20,50.6304216666667,-96.9807916666667,6.2,8.0,233,989.61,12.8,62,18.87,0.0,1016.20,194.5
2018-09-03 07:30,50.6304283333333,-96.9807633333333,5.7,7.4,243,989.63,12.7,63,18.87,0.0,1016.22,194.5
2018-09-03 07:40,50.6304616666667,-96.98077,6.6,10.2,240,989.70,12.8,64,18.84,0.0,1016.30,194.5
2018-09-03 07:50,50.63045,-96.9807683333333,6.0,8.1,243,989.80,12.8,65,18.83,0.0,1016.40,194.5
2018-09-03 08:00,50.6304183333333,-96.980765,5.5,7.8,247,989.85,12.8,66,18.83,0.0,1016.47,360.0
2018-09-03 08:10,50.6304233333333,-96.9807733333333,5.4,7.5,244,989.89,12.7,67,18.82,0.0,1016.52,360.0
2018-09-03 08:20,50.63042,-96.9807833333333,5.5,7.5,243,989.93,12.6,68,18.81,0.0,1016.57,360.0
2018-09-03 08:30,50.6304316666667,-96.9807716666667,5.0,7.4,235,990.03,12.6,70,18.81,0.0,1016.68,360.0
2018-09-03 08:40,50.6304366666667,-96.9807766666667,5.7,7.5,234,990.09,12.7,70,18.80,0.0,1016.74,360.0
2018-09-03 08:50,50.6304416666667,-96.9807883333333,5.4,6.9,234,990.21,12.6,71,18.79,0.0,1016.88,360.0
2018-09-03 09:00,50.6304416666667,-96.980775,5.2,6.5,239,990.35,12.6,71,18.78,0.0,1017.02,90.0
2018-09-03 09:10,50.6304383333333,-96.980775,5.3,7.2,245,990.45,12.9,70,18.76,0.0,1017.12,90.0
2018-09-03 09:20,50.63045,-96.9807783333333,6.2,8.3,243,990.46,13.2,69,18.75,0.0,1017.12,90.0
2018-09-03 09:30,50.6304433333333,-96.9807716666667,5.6,7.5,246,990.51,13.2,70,18.74,0.0,1017.16,90.0
2018-09-03 09:40,50.6304433333333,-96.98077,5.2,6.7,237,990.66,13.0,72,18.72,0.0,1017.33,90.0
2018-09-03 09:50,50.63044,-96.9807733333333,4.4,6.4,262,990.78,12.9,73,18.72,0.0,1017.46,90.0
2018-09-03 10:00,50.6304383333333,-96.9807583333333,5.0,7.1,254,990.77,12.9,73,18.71,0.0,1017.45,36.6
2018-09-03 10:10,50.630435,-96.980765,5.1,6.9,259,990.84,13.0,72,18.69,0.0,1017.52,36.6
2018-09-03 10:20,50.630425,-96.9807566666667,4.9,6.6,263,990.89,12.8,74,18.68,0.0,1017.59,36.6
2018-09-03 10:30,50.630435,-96.98077,5.7,7.3,262,990.86,12.9,73,18.68,0.0,1017.55,36.6
2018-09-03 10:40,50.630435,-96.9807633333333,5.4,6.9,262,990.90,13.0,72,18.68,0.0,1017.59,36.6
2018-09-03 10:50,50.6304383333333,-96.980765,5.6,6.8,261,990.94,13.1,72,18.66,0.0,1017.62,36.6
2018-09-03 11:00,50.6304483333333,-96.9807733333333,5.4,6.7,255,991.02,13.1,72,18.64,0.0,1017.69,360.0
2018-09-03 11:10,50.6304433333333,-96.9807733333333,4.4,5.7,242,991.08,12.7,75,18.64,0.0,1017.76,360.0
2018-09-03 11:20,50.6304416666667,-96.980775,2.1,5.0,274,991.12,12.5,77,18.62,0.0,1017.80,360.0
2018-09-03 11:30,50.6304483333333,-96.98077,2.1,5.8,226,991.36,12.3,78,18.61,0.0,1018.07,360.0
2018-09-03 11:40,50.6304383333333,-96.9807633333333,3.7,5.8,221,991.40,11.8,82,18.61,0.0,1018.15,360.0
2018-09-03 11:50,50.6304433333333,-96.9807316666667,1.7,2.7,230,991.27,11.5,83,18.60,0.0,1018.02,360.0
2018-09-03 12:00,50.6304416666667,-96.9807566666667,2.2,3.2,215,991.22,11.5,83,18.60,0.0,1017.97,90.0
2018-09-03 12:10,50.6304433333333,-96.9807583333333,5.1,9.4,173,991.33,11.7,84,18.56,0.0,1018.08,90.0
2018-09-03 12:20,50.6304416666667,-96.9807583333333,6.6,8.5,181,991.58,11.6,77,18.53,0.0,1018.33,90.0
2018-09-03 12:30,50.6304683333333,-96.9807866666667,6.0,7.7,186,991.70,11.7,76,18.52,0.0,1018.45,90.0
2018-09-03 12:40,50.6304533333333,-96.980765,6.2,9.5,190,991.84,12.2,72,18.49,0.0,1018.56,90.0
2018-09-03 12:50,50.6304483333333,-96.98076,7.4,9.5,178,991.89,12.3,66,18.49,0.0,1018.60,90.0
2018-09-03 13:00,50.6304583333333,-96.9807716666667,5.8,8.0,182,991.90,12.0,67,18.50,0.0,1018.66,327.5
2018-09-03 13:10,50.6304566666667,-96.980765,4.4,6.7,198,992.00,11.9,68,18.50,0.0,1018.77,327.5
2018-09-03 13:20,50.6304533333333,-96.980765,2.9,4.6,213,991.93,12.0,66,18.51,0.0,1018.71,327.5
2018-09-03 13:30,50.630455,-96.9807666666667,4.2,6.2,209,991.93,12.3,65,18.52,0.0,1018.72,327.5
2018-09-03 13:40,50.6304566666667,-96.9807666666667,6.1,8.0,206,991.89,12.8,63,18.52,0.0,1018.66,327.5
2018-09-03 13:50,50.6304433333333,-96.9807783333333,5.0,7.0,216,991.92,13.4,60,18.53,0.0,1018.67,327.5
2018-09-03 14:00,50.630445,-96.9807716666667,3.6,5.2,216,992.00,14.0,57,18.51,0.0,1018.71,360.0
2018-09-03 14:10,50.6304483333333,-96.9807716666667,3.4,5.0,213,991.94,14.3,57,18.46,0.0,1018.63,360.0
2018-09-03 14:20,50.6304483333333,-96.9807733333333,2.6,3.8,227,991.94,14.7,56,18.45,0.0,1018.62,360.0
2018-09-03 14:30,50.6304466666667,-96.98077,1.4,2.9,164,991.93,15.2,55,18.43,0.0,1018.56,360.0
2018-09-03 14:40,50.630445,-96.98077,2.7,5.6,156,991.89,15.4,55,18.43,0.0,1018.50,360.0
2018-09-03 14:50,50.6304433333333,-96.9807716666667,3.8,5.8,175,991.96,15.4,57,18.45,0.0,1018.59,360.0
2018-09-03 15:00,50.6304483333333,-96.9807883333333,3.7,4.8,172,992.10,15.5,57,18.47,0.0,1018.73,284.2
2018-09-03 15:10,50.6304433333333,-96.9807633333333,3.1,4.4,164,992.13,15.9,57,18.47,0.0,1018.74,284.2
2018-09-03 15:20,50.63044,-96.980765,2.7,4.0,113,991.96,17.2,56,18.47,0.0,1018.49,284.2
2018-09-03 15:30,50.6304416666667,-96.9807683333333,3.5,4.5,128,991.94,17.8,56,18.47,0.0,1018.41,284.2
2018-09-03 15:40,50.630425,-96.9807783333333,4.1,5.7,116,991.91,18.0,58,18.48,0.0,1018.35,284.2
2018-09-03 15:50,50.6304383333333,-96.9807616666667,6.2,7.8,118,991.91,18.0,62,18.49,0.0,1018.32,284.2
2018-09-03 16:00,50.6304333333333,-96.9807583333333,7.4,8.8,118,991.93,17.6,63,18.50,0.0,1018.34,159.9
2018-09-03 16:10,50.63043,-96.9807583333333,7.2,9.2,124,991.84,17.6,64,18.52,0.0,1018.24,159.9
2018-09-03 16:20,50.6304316666667,-96.98076,7.0,9.5,133,991.82,17.7,61,18.54,0.0,1018.18,159.9
2018-09-03 16:30,50.6304316666667,-96.9807633333333,8.1,9.8,137,991.83,17.3,66,18.56,0.0,1018.21,159.9
2018-09-03 16:40,50.6304216666667,-96.980755,8.3,9.9,151,991.76,16.9,65,18.57,0.0,1018.16,159.9
2018-09-03 16:50,50.630445,-96.9807866666667,8.5,9.7,146,991.67,17.1,63,18.59,0.0,1018.05,159.9
2018-09-03 17:00,50.630445,-96.98078,8.8,10.9,138,991.56,17.7,62,18.60,0.0,1017.89,270.0
2018-09-03 17:10,50.6304433333333,-96.98078,10.4,12.8,120,991.47,18.4,64,18.61,0.0,1017.70,270.0
2018-09-03 17:20,50.6304416666667,-96.9807816666667,11.0,13.3,121,991.43,18.6,62,18.62,0.0,1017.62,270.0
2018-09-03 17:30,50.63044,-96.9807816666667,11.6,13.4,118,991.32,19.0,62,18.66,0.0,1017.49,270.0
2018-09-03 17:40,50.6304416666667,-96.9807816666667,11.5,13.4,117,991.18,19.3,61,18.70,0.0,1017.34,270.0
2018-09-03 17:50,50.6304416666667,-96.9807816666667,11.9,15.2,117,991.03,19.5,62,18.72,0.0,1017.18,270.0
2018-09-03 18:00,50.6304416666667,-96.98078,12.6,15.3,116,990.82,19.8,60,18.74,0.0,1016.96,167.4
2018-09-03 18:10,50.6304416666667,-96.98078,11.2,12.8,113,990.78,19.9,62,18.76,0.0,1016.91,167.4
2018-09-03 18:20,50.63044,-96.9807683333333,10.4,12.0,110,990.66,20.2,60,18.76,0.0,1016.79,167.4
2018-09-03 18:30,50.63044,-96.98078,10.2,12.0,104,990.40,20.4,62,18.73,0.0,1016.53,167.4
2018-09-03 18:40,50.6304383333333,-96.980775,10.1,12.1,105,990.27,20.7,59,18.71,0.0,1016.38,167.4
2018-09-03 18:50,50.6304383333333,-96.9807733333333,10.0,11.9,102,990.15,21.0,58,18.68,0.0,1016.21,167.4
2018-09-03 19:00,50.6304366666667,-96.9807733333333,9.4,11.2,98,990.05,21.2,59,18.66,0.0,1016.06,299.2
2018-09-03 19:10,50.630425,-96.9807783333333,10.2,11.6,99,989.85,21.4,59,18.64,0.0,1015.84,299.2
2018-09-03 19:20,50.6304283333333,-96.9807716666667,10.7,12.1,101,989.62,21.5,57,18.63,0.0,1015.59,299.2
2018-09-03 19:30,50.6304233333333,-96.9807816666667,10.7,12.8,98,989.46,21.7,58,18.67,0.0,1015.40,299.2
2018-09-03 19:40,50.6304283333333,-96.9807816666667,10.3,12.5,97,989.26,21.7,59,18.73,0.0,1015.18,299.2
2018-09-03 19:50,50.63043,-96.9807816666667,10.7,12.5,98,989.08,21.8,60,18.74,0.0,1014.98,299.2
2018-09-03 20:00,50.6304316666667,-96.9807783333333,11.0,13.0,99,988.96,21.9,58,18.76,0.0,1014.85,142.0
2018-09-03 20:10,50.6304483333333,-96.9808066666667,11.6,14.6,112,988.86,22.1,55,18.78,0.0,1014.73,142.0
2018-09-03 20:20,50.6304466666667,-96.9807783333333,11.0,15.6,129,988.67,22.3,49,18.79,0.0,1014.51,142.0
2018-09-03 20:30,50.6304433333333,-96.9807783333333,9.8,12.5,116,988.54,22.1,61,18.86,0.0,1014.38,142.0
2018-09-03 20:40,50.6304416666667,-96.9807783333333,10.4,15.9,125,988.39,21.8,59,18.97,0.0,1014.22,142.0
2018-09-03 20:50,50.63044,-96.9807766666667,13.4,18.1,136,988.19,22.6,45,18.99,0.0,1013.97,142.0
2018-09-03 21:00,50.6304083333333,-96.9807633333333,13.7,18.7,135,988.00,23.0,43,19.00,0.0,1013.75,152.1
2018-09-03 21:10,50.6304216666667,-96.9807616666667,14.4,18.7,133,987.85,23.2,43,19.00,0.0,1013.58,152.1
2018-09-03 21:20,50.6304433333333,-96.9807716666667,14.6,18.8,139,987.73,23.3,40,19.02,0.0,1013.45,152.1
2018-09-03 21:30,50.6304466666667,-96.9807666666667,14.5,19.3,138,987.62,23.1,42,19.06,0.0,1013.35,152.1
2018-09-03 21:40,50.6304416666667,-96.980765,15.5,18.8,140,987.47,23.0,42,19.09,0.0,1013.19,152.1
2018-09-03 21:50,50.6304383333333,-96.9807616666667,15.8,18.0,144,987.33,22.8,43,19.11,0.0,1013.05,152.1
2018-09-03 22:00,50.6304383333333,-96.980765,16.6,18.9,145,987.23,22.7,43,19.10,0.0,1012.94,12.6
2018-09-03 22:10,50.6304366666667,-96.9807683333333,16.5,19.5,146,987.17,22.8,43,19.10,0.0,1012.87,12.6
2018-09-03 22:20,50.630445,-96.9807816666667,17.5,21.4,149,987.08,22.9,43,19.11,0.0,1012.78,12.6
2018-09-03 22:30,50.63044,-96.98078,17.0,21.4,150,987.06,23.1,42,19.10,0.0,1012.76,12.6
2018-09-03 22:40,50.6304483333333,-96.9807933333333,17.3,20.3,151,986.97,23.1,42,19.11,0.0,1012.64,12.6
2018-09-03 22:50,50.630425,-96.98078,17.1,20.7,150,986.82,22.8,45,19.14,0.0,1012.48,12.6
2018-09-03 23:00,50.63044,-96.9807566666667,16.6,20.0,152,986.76,22.5,46,19.18,0.0,1012.42,57.7
2018-09-03 23:10,50.6304416666667,-96.98076,14.5,18.1,154,986.73,22.6,46,19.18,0.0,1012.38,57.7
2018-09-03 23:20,50.6304433333333,-96.980765,14.7,18.0,150,986.57,22.5,47,19.19,0.0,1012.23,57.7
2018-09-03 23:30,50.6304433333333,-96.98077,16.4,20.3,150,986.43,22.4,46,19.19,0.0,1012.10,57.7
2018-09-03 23:40,50.6304366666667,-96.980765,14.5,19.1,156,986.40,22.5,46,19.21,0.0,1012.07,57.7
2018-09-03 23:50,50.63045,-96.9807783333333,12.6,16.6,161,986.37,22.1,50,19.22,0.0,1012.06,57.7
